This is the latest recevied weather packets stored in our database for station/object KE0FIN. If no packets are shown the sender has not sent any weather packets the latest 1 day(s).
| Time | Temp. | Humidity | Pressure | Rain* | Wind** | Luminosity | Snow |
|---|---|---|---|---|---|---|---|
| 1836274685 | 22.22° C | 69% | 1066.2 hPa | 0 mm | 0 m/s | 0 W/m² | - |
| 1836274538 | 22.22° C | 72% | 1066.2 hPa | 0 mm | 0 m/s | 0 W/m² | - |
| 1836274383 | 22.22° C | 68% | 1066.6 hPa | 0 mm | 0 m/s | 0 W/m² | - |
| 1836274236 | 22.22° C | 71% | 1066.3 hPa | 0 mm | 0 m/s | 0 W/m² | - |
| 1836274081 | 22.22° C | 68% | 1066.5 hPa | 0 mm | 0 m/s | 0 W/m² | - |
| 1778033869 | 8.89° C | 96% | 1065.5 hPa | 0 mm | 0 m/s | 0 W/m² | - |
| 1778033566 | 8.89° C | 96% | 1065.4 hPa | 0 mm | 0 m/s | 0 W/m² | - |
| 1778033263 | 8.89° C | 96% | 1065.4 hPa | 0 mm | 0 m/s | 0 W/m² | - |
| 1778032961 | 8.89° C | 95% | 1065.5 hPa | 0 mm | 0 m/s | 0 W/m² | - |
| 1778032658 | 8.89° C | 95% | 1065.2 hPa | 0 mm | 0 m/s | 0 W/m² | - |
| 1778032355 | 8.89° C | 95% | 1065.3 hPa | 0 mm | 0 m/s | 0 W/m² | - |
| 1778032052 | 8.89° C | 94% | 1065.1 hPa | 0 mm | 0 m/s | 0 W/m² | - |
| 1778031748 | 8.89° C | 93% | 1065 hPa | 0 mm | 0 m/s | 0 W/m² | - |
| 1778031446 | 8.89° C | 93% | 1064.8 hPa | 0 mm | 0 m/s | 0 W/m² | - |
| 1778031144 | 8.89° C | 93% | 1064.8 hPa | 0 mm | 0 m/s | 0 W/m² | - |
| 1778030840 | 8.89° C | 92% | 1064.4 hPa | 0 mm | 0 m/s | 0 W/m² | - |
| 1778030537 | 8.89° C | 91% | 1064.4 hPa | 0 mm | 0 m/s | 1 W/m² | - |
| 1778030234 | 8.89° C | 90% | 1064.1 hPa | 0 mm | 0 m/s | 1 W/m² | - |
| 1778029930 | 8.89° C | 90% | 1064.1 hPa | 1.27 mm | 0 m/s | 2 W/m² | - |
| 1778029629 | 8.89° C | 89% | 1064.1 hPa | 1.27 mm | 0 m/s | 3 W/m² | - |
| 1778029326 | 8.89° C | 89% | 1064.3 hPa | 0 mm | 0 m/s | 2 W/m² | - |
| 1778029023 | 9.44° C | 87% | 1063.9 hPa | 0 mm | 0 m/s | 3 W/m² | - |
| 1778028720 | 9.44° C | 86% | 1064 hPa | 0 mm | 0 m/s | 2 W/m² | - |
| 1778028415 | 9.44° C | 84% | 1063.8 hPa | 0 mm | 0 m/s | 5 W/m² | - |
| 1778028112 | 10° C | 82% | 1063.7 hPa | 1.78 mm | 0 m/s | 10 W/m² | - |
* Rain latest hour (hover to see other rain measurements)
** Current wind speed in m/s (hover to see current wind gust speed)